[[{"header":{"parameterUnit":"m.s-1","parameterCategory":1,"la1":30.2992,"la2":30.254,"lo1":-89.0895,"lo2":-89.0443,"dy":0.0025,"dx":0.0025,"nx":19,"ny":19,"refTime":"2026-03-16T09:00:00:Z","depth":0,"parameterNumber":2,"parameterNumberName":"U-component_of_WINDS"},"data":[0,0,0,-1.9982,-1.9984,-2.0099,-2.0099,-2.0246,-2.0248,0,0,0,0,0,0,0,0,0,0,0,-1.9949,-1.995,-1.9981,-1.9984,-2.0099,-2.0099,-2.0246,-2.0248,0,0,0,0,0,0,0,0,0,0,0,-1.9949,-1.995,-1.9952,-1.9985,-2.0099,-2.0099,-2.0246,-2.0159,0,0,0,0,0,0,0,0,0,0,-2.0047,-2.002,-1.995,-1.9952,-1.9985,-2.0098,-2.0099,-2.0155,-2.0164,-2.0195,0,-2.0224,0,-2.0238,-2.0258,-2.0258,0,0,0,-1.9983,-2.0012,-2.0041,-1.9952,-1.9987,-2.0098,-2.0047,-2.016,-2.0171,-2.0208,-2.0226,-2.0231,-2.0241,-2.0259,-2.0259,-2.0444,-2.0445,0,0,-1.9977,-1.9971,-2.0034,-2.0048,-2.0032,-2.0043,-2.005,-2.0167,-2.0186,-2.0227,-2.0235,-2.0243,-2.026,-2.0261,-2.0443,-2.0444,0,0,0,-1.9959,-1.9966,-1.9993,-2.0042,-2.0063,-2.0046,-2.0055,-2.018,-2.019,-2.0236,-2.0245,-2.026,-2.0262,-2.0442,-2.0443,-2.0483,0,0,0,-1.9956,-1.9956,-1.999,-1.9988,-2.0061,-2.0123,-2.0066,-2.0181,-2.0195,-2.0244,-2.026,-2.0264,-2.0441,-2.0443,-2.048,-2.0503,0,0,0,-1.9941,-1.9955,-1.9972,-1.9987,-2.0036,-2.0122,-2.0137,-2.0185,-2.02,-2.0258,-2.0264,-2.044,-2.0442,-2.0477,-2.0498,-2.0549,0,0,0,-1.9924,-2.0006,-1.9972,-2.0067,-2.0035,-2.0146,-2.0137,-2.0219,-2.0274,-2.0261,-2.0441,-2.0443,-2.0476,-2.0495,-2.0546,-2.0591,-2.0609,0,0,-2.0024,-2.0018,-2.0074,-2.0047,-2.0162,-2.0129,-2.0249,-2.0305,-2.0316,-2.04,-2.0405,-2.0481,-2.0498,-2.0548,-2.0714,-2.0729,0,0,0,-2.0103,-2.0143,-2.0175,-2.0227,-2.0272,-2.0311,-2.0349,-2.0369,-2.0441,-2.0358,-2.0514,-2.0524,-2.0554,-2.0575,-2.0588,-2.0613,-2.0453,-2.0453,-2.0453,-2.0236,-2.0246,-2.0338,-2.0361,-2.0411,-2.0449,-2.049,-2.0524,-2.0519,-2.0555,-2.058,-2.068,-2.0705,-2.0714,-2.0741,-2.0605,-2.0605,-2.0605,-2.0605,-2.0383,-2.044,-2.0431,-2.0518,-2.0526,-2.0599,-2.0638,-2.0631,-2.0699,-2.0662,-2.0689,-2.0646,-2.073,-2.0753,-2.0609,-2.0608,-2.0608,-2.0607,-2.0607,-2.047,-2.0499,-2.0523,-2.0598,-2.0655,-2.0675,-2.074,-2.0746,-2.0752,-2.0778,-2.0805,-2.0804,-2.0803,-2.0791,-2.0791,-2.0791,-2.0792,-2.0792,-2.0792,-2.0552,-2.0577,-2.0632,-2.0685,-2.0718,-2.0763,-2.0801,-2.0834,-2.0871,-2.087,-2.087,-2.0861,-2.0736,-2.0705,-2.0798,-2.0797,-2.0796,-2.0795,-2.0795,-2.0696,-2.0664,-2.0749,-2.0782,-2.0844,-2.0899,-2.0906,-2.0972,-2.1,-2.1032,-2.1016,-2.0924,-2.0918,-2.0908,-2.0881,-2.1015,-2.1015,-2.1015,-2.1015,-2.0769,-2.0767,-2.0854,-2.0907,-2.0959,-2.0973,-2.1067,-2.1097,-2.1122,-2.114,-2.1121,-2.1087,-2.1077,-2.1077,-2.1063,-2.1039,-2.1209,-2.1209,-2.1209,-2.0858,-2.086,-2.094,-2.0965,-2.1013,-2.1055,-2.1143,-2.1203,-2.1226,-2.1217,-2.1153,-2.1145,-2.109,-2.1072,-2.1062,-2.1041,-2.0996,0,0]},{"header":{"parameterUnit":"m.s-1","parameterCategory":1,"la1":30.2992,"la2":30.254,"lo1":-89.0895,"lo2":-89.0443,"dy":0.0025,"dx":0.0025,"nx":19,"ny":19,"refTime":"2026-03-16T09:00:00:Z","depth":0,"parameterNumber":3,"parameterNumberName":"V-component_of_WINDS"},"data":[0,0,0,-1.0903,-1.0904,-1.0942,-1.0943,-1.0992,-1.0992,0,0,0,0,0,0,0,0,0,0,0,-1.0891,-1.0891,-1.0903,-1.0904,-1.0942,-1.0943,-1.0992,-1.0992,0,0,0,0,0,0,0,0,0,0,0,-1.0891,-1.0891,-1.0891,-1.0904,-1.0942,-1.0943,-1.0992,-1.0963,0,0,0,0,0,0,0,0,0,0,-1.0925,-1.0914,-1.0891,-1.0891,-1.0904,-1.0942,-1.0943,-1.0961,-1.0964,-1.0974,0,-1.0982,0,-1.0988,-1.0996,-1.0996,0,0,0,-1.0904,-1.0911,-1.0922,-1.0891,-1.0904,-1.0942,-1.0925,-1.0963,-1.0967,-1.0978,-1.0983,-1.0985,-1.0989,-1.0996,-1.0996,-1.1048,-1.1048,0,0,-1.0902,-1.0898,-1.0919,-1.0924,-1.0917,-1.0924,-1.0926,-1.0965,-1.097,-1.0983,-1.0986,-1.099,-1.0996,-1.0997,-1.1047,-1.1048,0,0,0,-1.0896,-1.0896,-1.0906,-1.0922,-1.0929,-1.0925,-1.0928,-1.0969,-1.0972,-1.0986,-1.099,-1.0997,-1.0997,-1.1047,-1.1047,-1.1053,0,0,0,-1.0894,-1.0892,-1.0905,-1.0903,-1.0928,-1.0949,-1.093,-1.0969,-1.0974,-1.099,-1.0997,-1.0998,-1.1047,-1.1047,-1.1052,-1.1056,0,0,0,-1.0888,-1.0892,-1.0897,-1.0903,-1.0919,-1.0949,-1.0954,-1.097,-1.0976,-1.0996,-1.0998,-1.1047,-1.1047,-1.1052,-1.1055,-1.1068,0,0,0,-1.0881,-1.0903,-1.0897,-1.0922,-1.0919,-1.0952,-1.0954,-1.0979,-1.0997,-1.0997,-1.1047,-1.1047,-1.1052,-1.1055,-1.1067,-1.1077,-1.1081,0,0,-1.0906,-1.0906,-1.0921,-1.0917,-1.0949,-1.0946,-1.098,-1.1,-1.1007,-1.1034,-1.1035,-1.1052,-1.1055,-1.1068,-1.1105,-1.1108,0,0,0,-1.0927,-1.0938,-1.0947,-1.0963,-1.0979,-1.0992,-1.1008,-1.1015,-1.1038,-1.102,-1.1061,-1.1063,-1.107,-1.1075,-1.1078,-1.1084,-1.105,-1.105,-1.105,-1.0956,-1.0962,-1.0987,-1.0997,-1.1012,-1.1027,-1.104,-1.1053,-1.1056,-1.1065,-1.1073,-1.1094,-1.11,-1.1102,-1.1109,-1.1079,-1.1079,-1.1079,-1.1079,-1.0992,-1.1008,-1.1009,-1.1033,-1.1039,-1.106,-1.1075,-1.1076,-1.1096,-1.1089,-1.1096,-1.1088,-1.1105,-1.1111,-1.108,-1.108,-1.1079,-1.1079,-1.1079,-1.1011,-1.102,-1.1027,-1.105,-1.1066,-1.1076,-1.1095,-1.11,-1.1105,-1.1112,-1.112,-1.112,-1.112,-1.1116,-1.1116,-1.1116,-1.1116,-1.1116,-1.1116,-1.1028,-1.1036,-1.1051,-1.1068,-1.1078,-1.1092,-1.1107,-1.1117,-1.113,-1.1132,-1.1132,-1.1133,-1.1106,-1.1098,-1.1117,-1.1117,-1.1117,-1.1117,-1.1117,-1.1062,-1.1054,-1.1077,-1.1087,-1.1107,-1.1122,-1.1128,-1.1148,-1.1158,-1.1167,-1.1166,-1.1145,-1.1145,-1.1143,-1.1137,-1.1165,-1.1165,-1.1165,-1.1165,-1.1077,-1.1078,-1.1101,-1.1117,-1.1132,-1.1139,-1.1165,-1.1176,-1.1186,-1.1192,-1.1189,-1.1182,-1.1179,-1.1181,-1.1178,-1.1173,-1.1209,-1.1209,-1.1209,-1.1098,-1.11,-1.112,-1.1129,-1.1145,-1.1158,-1.1182,-1.1199,-1.121,-1.1211,-1.1197,-1.1195,-1.1183,-1.1179,-1.118,-1.1175,-1.1165,0,0]}]]